Location: Central Falls
(41.8900°N, 71.3929°W)
Time: 06:50:28
(UTC+00:00)

Vanguard 3 - Pass Details

Date: 10 December 2023
Orbit: 508 x 3239 km, 33.4° (Epoch: 01 March)

Event Time Altitude Azimuth Distance (km) Brightness Sun altitude
Rises 23:05:56 0° 218° (SW) 7,192 12.8 -20.0°
Reaches altitude 10° 23:11:35 10° 211° (SSW) 6,105 12.2 -21.0°
Maximum altitude 23:27:17 35° 154° (SSE) 3,699 10.3 -23.9°
Enters shadow 23:33:29 26° 116° (ESE) 3,738 10.0 -25.0°
